Tracking 19245 objects as of 17-Aug-2018
HD Live streaming from Space Station
objects crossing your sky now

FENGYUN 1C DEB

Track FENGYUN 1C DEB now!
10-day predictions


NORAD ID: 31223
Int'l Code: 1999-025BLD
Perigee: 821.7 km
Apogee: 1,269.6 km
Inclination: 99.1 °
Period: 105.9 minutes
Semi major axis: 7416 km
RCS: 0.0099 m2 (small)
Launch date: May 10, 1999
Source: People's Republic of China (PRC)
Launch site: Taiyaun Space Center, China (TSC)

Note: This is SATELLITE DEBRIS
aabbcc
Your satellite tracking list
Your tracking list is empty




NASA's NSSDC Master Catalog

Two Line Element Set (TLE):
1 31223U 99025BLD 18228.51391127  .00001475  00000-0  15223-2 0  9998
2 31223  99.0773 263.0820 0301966 167.5196 193.3641 13.59236042562408
Source of the keplerian elements: AFSPC